CSN0117 OKKK-OBBI

Flight info

Callsign CSN0117
Flight time N/A
Altitude 27000
Route BOXIK B416 IMDOX P975 LONOS L703 KOBOK
Aircraft A320/M-SDE2E3FGHIJ1RWXY/LB1

Departure

Time 2026-05-08 10:11
Airport Kuwait International Airport (OKKK)

Arrival

Time N/A
Airport Bahrain International Airport (OBBI)
Time Latitude Longitude Altitude Speed Heading
2026-05-08 09:43 29.24131 47.97967 169 ft 0 kts 245°
2026-05-08 09:50 29.24132 47.97968 169 ft 1 kts 245°
2026-05-08 09:50 29.24134 47.97973 169 ft 1 kts 245°
2026-05-08 09:50 29.24136 47.97979 169 ft 1 kts 245°
2026-05-08 09:51 29.24140 47.97989 170 ft 1 kts 245°
2026-05-08 09:51 29.24144 47.97999 170 ft 1 kts 245°
2026-05-08 09:51 29.24148 47.98010 170 ft 2 kts 243°
2026-05-08 09:51 29.24159 47.98025 170 ft 3 kts 174°
2026-05-08 09:52 29.24166 47.98024 170 ft 0 kts 155°
2026-05-08 09:55 29.24165 47.98024 170 ft 0 kts 155°
2026-05-08 09:55 29.24164 47.98025 170 ft 0 kts 155°
2026-05-08 09:56 29.24162 47.98026 170 ft 0 kts 155°
2026-05-08 09:58 29.24158 47.98028 170 ft 4 kts 154°
2026-05-08 09:58 29.24102 47.98058 171 ft 12 kts 154°
2026-05-08 09:59 29.24036 47.98008 170 ft 13 kts 230°
2026-05-08 09:59 29.23943 47.98017 170 ft 2 kts 155°
2026-05-08 09:59 29.23928 47.98025 170 ft 2 kts 155°
2026-05-08 09:59 29.23882 47.98021 170 ft 18 kts 219°
2026-05-08 10:00 29.23816 47.97877 169 ft 23 kts 244°
2026-05-08 10:00 29.23743 47.97686 166 ft 29 kts 246°
2026-05-08 10:00 29.23697 47.97556 164 ft 9 kts 250°
2026-05-08 10:00 29.23662 47.97462 162 ft 19 kts 246°
2026-05-08 10:01 29.23596 47.97288 159 ft 19 kts 247°
2026-05-08 10:01 29.23534 47.97131 156 ft 21 kts 244°
2026-05-08 10:01 29.23521 47.97100 156 ft 1 kts 243°
2026-05-08 10:01 29.23515 47.97085 155 ft 2 kts 244°
2026-05-08 10:02 29.23495 47.97039 155 ft 12 kts 244°
2026-05-08 10:02 29.23454 47.96944 154 ft 13 kts 243°
2026-05-08 10:02 29.23420 47.96865 155 ft 9 kts 243°
2026-05-08 10:02 29.23394 47.96802 156 ft 7 kts 251°
2026-05-08 10:03 29.23436 47.96728 156 ft 17 kts 336°
2026-05-08 10:03 29.23559 47.96661 155 ft 22 kts 336°
2026-05-08 10:03 29.23715 47.96575 153 ft 27 kts 332°
2026-05-08 10:03 29.23876 47.96491 151 ft 17 kts 335°
2026-05-08 10:04 29.23886 47.96486 150 ft 1 kts 334°
2026-05-08 10:04 29.23897 47.96479 150 ft 3 kts 334°
2026-05-08 10:04 29.23918 47.96468 150 ft 4 kts 334°
2026-05-08 10:04 29.23981 47.96435 149 ft 16 kts 336°
2026-05-08 10:05 29.24095 47.96374 148 ft 21 kts 335°
2026-05-08 10:05 29.24186 47.96352 146 ft 4 kts 308°
2026-05-08 10:05 29.24167 47.96344 147 ft 9 kts 184°
2026-05-08 10:05 29.24085 47.96380 148 ft 17 kts 155°
2026-05-08 10:06 29.23956 47.96448 150 ft 24 kts 153°
2026-05-08 10:06 29.23787 47.96537 152 ft 30 kts 155°
2026-05-08 10:06 29.23590 47.96644 154 ft 32 kts 155°
2026-05-08 10:06 29.23379 47.96757 157 ft 34 kts 155°
2026-05-08 10:07 29.23176 47.96860 160 ft 29 kts 154°
2026-05-08 10:07 29.22988 47.96962 162 ft 31 kts 155°
2026-05-08 10:07 29.22783 47.97071 164 ft 34 kts 155°
2026-05-08 10:07 29.22565 47.97187 166 ft 35 kts 154°
2026-05-08 10:08 29.22345 47.97300 169 ft 30 kts 148°
2026-05-08 10:08 29.22215 47.97373 171 ft 32 kts 155°
2026-05-08 10:08 29.22146 47.97410 171 ft 33 kts 155°
2026-05-08 10:09 29.21357 47.97828 180 ft 20 kts 157°
2026-05-08 10:09 29.21255 47.97737 188 ft 13 kts 287°
2026-05-08 10:10 29.21308 47.97633 193 ft 20 kts 303°
2026-05-08 10:11 29.23172 47.96613 936 ft 167 kts 334°
2026-05-08 10:11 29.23888 47.96233 1647 ft 168 kts 334°
2026-05-08 10:12 29.27782 47.94171 4415 ft 216 kts 334°
2026-05-08 10:12 29.29231 47.93508 5185 ft 236 kts 348°
2026-05-08 10:12 29.30912 47.93655 6100 ft 255 kts 21°
2026-05-08 10:12 29.32335 47.94923 7113 ft 271 kts 56°